sat.trackr.live / text

‹ back to catalog

FASTSAT-HSV01 (USA 220)

NORAD 37225 · 2010-062D

PAYLOAD ACTIVE UNKNOWN

§ Identity

Operator
Country
US
Launch date
2010-11-20
Launch site
KODAK
Launch vehicle
Mass (kg)
RCS (m²)

External: N2YO · Heavens-Above · Gunter

§ Orbital elements

Epoch: 2026-09-13T04:08:56.099328Z

Period
97.15 min
Inclination
71.9735°
Eccentricity
0.0017948
Mean motion
14.82212919 rev/d
Perigee alt
609.8 km
Apogee alt
634.9 km
Semi-major
7,000.5 km
B*
4.8033e-5
RAAN
324.0208°
Arg perigee
317.5877°
Mean anomaly
42.3899°
Rev number
12,716

§ Raw data

FASTSAT-HSV01 (USA 220)1 37225U 10062D   26256.17287152  .00000325  00000+0  48033-4 0  99932 37225  71.9735 324.0208 0017948 317.5877  42.3899 14.82212919127160

JSON: /api/v1/satellites/37225 · /tle

For live sub-satellite position, see the globe view (requires WebGL).

§ Visibility from observer

Set your observer location to see the next 7 days of passes ≥ 10°. The values pass through the URL so the page stays shareable.

No JS? Fill the form by hand. The geolocation button needs JavaScript.